829  
ASUS41 KOKX 230805  
RWROKX  
 
REGIONAL WEATHER ROUNDUP  
NATIONAL WEATHER SERVICE NEW YORK NY  
400 AM EDT THU OCT 23 2014  
 
NOTE: "FAIR" INDICATES FEW OR NO CLOUDS BELOW 12,000 FEET WITH NO  
SIGNIFICANT WEATHER AND/OR S TO VISIBILITY
.  
 
NYZ071-072-176-178-NJZ106-104-230900-  
NEW YORK CITY METRO AREA  
 
 
CITY SKY/WX TMP DP RH WIND PRES REMARKS
 
CENTRAL PARK LGT RAIN 52 46 80 NE8G21 29.73F  
LAGUARDIA APRT RAIN 53 47 79 N15 29.70S  
KENNEDY INTL CLOUDY 54 46 74 N26G33 29.68F  
NEWARK/LIBERTY CLOUDY 53 47 79 N23G29 29.70F  
BRNX BOT. GARD N/A 50 46 87 CALM 29.70F  
TETERBORO LGT RAIN 53 45 74 N14G25 29.70F  

 
 
NYZ177-179-078>081-230900-  
LONG ISLAND NEW YORK  
 
CITY SKY/WX TMP DP RH WIND PRES REMARKS
 
FARMINGDALE CLOUDY 52 47 83 N26G33 29.66S  
ISLIP CLOUDY 52 47 83 N23G38 29.63S  
SHIRLEY CLOUDY 52 47 83 N16G28 29.64S  
WESTHAMPTON LGT RAIN 53 47 79 N23G29 29.63F  
MONTAUK POINT N/A 55 51 86 N20G33 29.61R  

 
 
NYZ052-065-067-230900-  
HUDSON VALLEY  
 
CITY SKY/WX TMP DP RH WIND PRES REMARKS
 
WHITE PLAINS LGT RAIN 50 46 86 N16G24 29.68F  
NEWBURGH CLOUDY 50 48 93 N18G26 29.77F  
MONTGOMERY LGT RAIN 50 47 89 NE8 29.76F  
POUGHKEEPSIE CLOUDY 50 46 86 N14G22 29.77F  
ALBANY RAIN 48 44 86 N8 29.90S FOG  

 
 
NJZ001-105-106-008-010-013-015-019>022-104-230900-  
NEW JERSEY  
 
CITY SKY/WX TMP DP RH WIND PRES REMARKS
 
NEWARK/LIBERTY CLOUDY 53 47 79 N23G29 29.70F  
TETERBORO LGT RAIN 53 45 74 N14G25 29.70F  
CALDWELL CLOUDY 52 52 100 N9G16 29.73F  
MORRISTOWN CLOUDY 55 46 71 N12G23 29.73F  
SOMERVILLE CLOUDY 53 46 77 N10G20 29.72F  
SUSSEX LGT RAIN 51 47 86 CALM 29.77F FOG  
ANDOVER N/A 49 47 93 VRB7 29.76F  
TRENTON LGT RAIN 51 46 83 N14 29.72F  
MILLVILLE LGT RAIN 50 48 93 NW10 29.73F  
ATLANTIC CITY LGT RAIN 50 49 96 NW17 29.69S FOG  
WRIGHTSTOWN CLOUDY 51 47 86 N16 29.69S  
TOMS RIVER CLOUDY 52 48 87 N10 29.68S  
BELMAR CLOUDY 52 45 76 N20G26 29.67S  

 
 
PAZ047>061-062-071-230900-  
EASTERN PENNSYLVANIA  
 
CITY SKY/WX TMP DP RH WIND PRES REMARKS
 
PHILADELPHIA CLOUDY 53 45 74 NW16G29 29.75F  
ALLENTOWN LGT RAIN 52 43 71 N15 29.79F  
SCRANTON CLOUDY 48 43 82 N12G17 29.88R  

 
 
CTZ002-004>006-009-010-012-RIZ004-006-007-MAZ004-011-015-230900-  
SOUTHERN NEW ENGLAND  
IN CT  
 
CITY SKY/WX TMP DP RH WIND PRES REMARKS
 
BRADLEY INTL CLOUDY 50 45 83 N21G29 29.73F  
HARTFORD CLOUDY 50 45 83 N14G26 29.72F  
DANBURY LGT RAIN 51 44 77 N13 29.72F  
WTRBRY/OXFORD CLOUDY 48 41 76 NE18G33 29.69F  
BRIDGEPORT CLOUDY 51 47 86 N25G33 29.65F  
MERIDEN CLOUDY 50 45 83 N17G28 29.70F  
NEW HAVEN CLOUDY 52 46 80 N24G33 29.64F  
CHESTER CLOUDY 50 45 81 N16G25 29.66F  
GROTON CLOUDY 50 47 89 N26G33 29.61F  
WILLIMANTIC CLOUDY 51 44 77 NE18G25 29.69F  
 
IN RI  
 
CITY SKY/WX TMP DP RH WIND PRES REMARKS
 
PROVIDENCE CLOUDY 51 48 89 N24G35 29.64F  
BLOCK ISLAND CLOUDY 54 48 82 N18G33 29.59S  
WESTERLY LGT RAIN 52 48 86 N20G33 29.62F  
 
IN MA  
 
CITY SKY/WX TMP DP RH WIND PRES REMARKS
 
BOSTON HVY RAIN 49 49 100 N24G32 29.71F FOG  
WORCESTER LGT RAIN 45 44 97 N15G26 29.73R  
WESTFIELD LGT RAIN 50 46 86 N16G25 29.75R  
PROVINCETOWN CLOUDY 57 55 94 NE23G31 29.62F  
NANTUCKET CLOUDY 59 57 93 NE10 29.52S  

 
 
ANZ330-335-338-340-345-350-353-355-230900-  
COASTAL MARINE OBSERVATIONS  
 
 
STATION/POSITION TIME SKY/WX TEMP WIND PRES VSBY WAVE
 
AIR SEA DIR/SP/G HT/PER  
(UTC) (F) (DEG/KT/KT) (MB) (MI) (FT/S)  
NY HARB ENTRANCE NOT AVBL  
4S FIRE IS 0800 63 N/A 7/ 6  
20S FIRE ISLAND 0800 56 64 10/ 31/ 39 1000.9 9/ 7  
23SW MTP 0800 N/A 10/ 6  
HUDSON CANYON 0800 58 67 20/ 19/ 29 998.9  
EXECUTION ROCKS 0800 54 62 10/ 17/ 27 N/A  
WESTERN LI SOUND 0800 54 30/ 19/ 27 N/A 3/ 6  
CENTRAL LI SOUND 0700 54 63 360/ 25/ 35 N/A 4/ 4  
EASTERN LI SOUND 0700 54 63 20/ 23/ 31 N/A  
ROBBINS REEF 0800 53 360/ 26/ 31 1004.0  

 
 
>>>>>>>>>>>>>>>>>>>>>>>>>>>> KEY <<<<<<<<<<<<<<<<<<<<<<<<<<<  
> <  
> SKY/WX - SKY CONDITION/PRESENT WEATHER <  
> TMP - TEMPERATURE IN FAHRENHEIT <  
> DP - DEWPOINT IN FAHRENHEIT <  
> RH - RELATIVE HUMIDITY IN PERCENT <  
> WIND - DIRECTION AND SPEED IN MPH <  
> PRES - MEAN SEA LEVEL PRESSURE IN INCHES OF HG <  
> WCI - WIND CHILL INDEX <  
> VSB - VISIBILITY IN MILES <  
> HX - HEAT INDEX <  
> TC - TEMPERATURE IN CELSIUS <  
> VRB - VARIABLE WIND DIRECTION <  
> <  
>>>>>>>>>>>>>>>>>>>>>>>>>>>> KEY <<<<<<<<<<<<<<<<<<<<<<<<<<<  
 
CLICK HERE TO GO TO PREVIOUS BULLETINS.

The Nexlab NY Page
The Nexlab NJ Page
The Nexlab CT Page Main Text Page